Vertical_Velocity
-3 -4 -3 1 1 2 5 -4 4 1 1 -6 -2 -2 2 1 -2 -2 -2 -1 -2 -1 -1 -0 -1 -4 -0 -2 -2 -1 -1 3 -0 -1 2 1 -4 5 5 -1 4 -1 1 -3
-4 -1 -2 2 -1 3 -1 -1 1 0 3 -4 2 -1 -2 1 1 -1 0 -4 -1 0 -1 -1 -0 -3 -3 -1 -2 -4 0 -3 5 -3 -3 -1 1 5 9 5 1 -4 -2 3
-2 1 -5 -2 1 -3 -1 3 1 3 -1 4 -3 1 1 -0 -1 -0 0 -0 -2 -4 -4 -5 -3 -3 -1 -3 -4 -2 -1 1 -3 -0 2 0 -5 0 15 5 3 -4 -10 11
0 -4 5 3 -2 3 -3 -2 -0 1 4 -1 2 -4 -0 3 -0 1 1 2 -1 -1 -3 -4 -1 -2 -4 -1 -0 -1 -5 -4 -1 -1 3 -5 2 -5 2 4 2 1 6 6
-0 1 1 -1 5 -1 3 3 -0 -1 -2 3 -0 2 -2 -1 3 1 2 1 2 -1 -1 -2 -2 -3 -3 -3 -2 -5 -3 -4 -3 2 -1 -1 -2 -1 1 -1 2 6 8 1
-0 0 0 2 -0 4 5 -6 -3 1 1 1 0 2 1 -0 -1 3 2 2 1 3 -0 -0 -2 -2 -1 -0 -3 -3 -2 -3 -10 -4 1 5 -1 -2 4 -0 -3 6 3 2
-2 -1 -1 -0 -4 -0 -4 0 -0 -5 -1 1 1 -2 4 3 -0 -2 1 2 1 4 1 0 1 -3 -2 -2 -0 1 -2 -2 -3 -6 -4 -4 -2 -2 3 -3 2 3 0 -0
3 -1 -1 -2 2 -0 -4 2 -3 0 -3 -2 2 2 -1 2 3 -0 -1 1 2 -0 1 0 -0 -1 -1 -2 -1 1 0 -1 -2 -3 -3 -2 -3 -4 -3 1 -0 -3 2 -2
2 1 -2 2 -3 -2 1 -1 -1 -2 -1 0 -3 1 3 -1 1 3 1 -0 1 1 2 -0 -0 1 1 -1 -2 -3 -1 1 -1 -2 -5 -5 -2 -1 -3 -2 0 -1 -1 3
-1 -0 1 -1 -2 -3 -6 -1 1 3 1 -3 1 -3 -2 4 -1 1 3 1 1 1 2 3 1 1 3 -1 -2 -3 -2 -3 -2 1 -1 -7 -3 -5 -1 -2 -1 -0 -1 -1
1 -0 -2 0 0 -3 -6 -2 -8 -7 -3 -1 -3 2 -2 0 2 -1 2 3 1 1 1 1 2 4 -1 1 1 -0 -1 -2 -3 -4 -0 -3 -3 -2 1 -0 -4 -0 1 -1
-1 -1 -1 -4 -1 2 -3 -1 -2 2 -1 -1 -0 -5 1 -1 0 2 2 1 3 1 2 3 2 3 4 -0 0 0 -1 -1 -1 -5 -4 -3 -4 -9 -5 -6 -4 -7 -5 -4
-0 0 1 -4 -1 1 -3 -4 -2 -3 3 -1 3 4 -2 1 -3 -2 1 2 3 3 1 1 3 3 2 2 0 -0 2 1 -0 -1 1 -3 -1 -3 -4 -4 -4 1 2 1
-1 -2 1 -1 0 1 -3 -3 -2 -3 -7 -6 -6 -3 -6 2 4 -2 -2 -1 3 2 3 2 1 2 4 3 2 2 -0 1 2 1 0 1 -1 1 2 -1 -2 -1 -0 0
-0 0 1 0 -0 -1 -4 -2 -6 -9 -1 2 4 3 -1 2 -1 4 -0 -1 -1 1 3 3 2 2 1 3 3 3 1 -0 1 0 2 -1 -1 -1 1 1 1 0 0 -0
-5 -5 -1 -0 4 -2 -6 -3 -2 -4 -10 9 1 11 -4 2 -1 -2 -1 -1 -2 -1 1 2 6 -1 0 4 2 4 4 1 0 2 0 2 1 -0 -1 0 1 -0 -1 -4
-1 1 -3 -1 -0 -3 -4 -4 -9 -6 -7 2 -6 4 2 1 -2 -3 -4 -5 -2 -3 -1 2 3 -0 -4 9 6 -0 3 4 2 -0 -0 0 3 2 1 -1 -3 -2 -2 -2
-1 -3 -3 0 2 -0 -3 -2 -3 -7 -2 2 -2 3 1 -2 0 -3 -3 -4 -5 3 -7 6 -1 -1 -1 17 -1 2 2 3 1 3 0 0 -1 -0 1 2 1 -0 1 3
-0 -4 -2 -1 0 -4 -4 -1 -1 -6 -4 -9 7 10 -7 -2 -5 -6 -5 -1 -5 -6 5 -0 -14 0 13 16 4 3 2 1 1 1 1 0 -1 1 -1 -1 -3 -4 -3 -3
2 -12 -3 -0 -2 -2 4 -3 -5 -5 1 -0 10 5 -5 -11 -9 -8 -10 -12 -5 -14 -5 -13 -6 13 15 -3 -1 0 2 1 3 1 -0 1 -0 1 -2 -2 -1 -2 -2 -3
-1 -3 -4 -6 -2 -4 -1 -6 5 1 2 16 19 -7 -10 -8 -0 -3 -11 -9 -8 -14 -5 -13 -18 14 8 -6 -1 1 5 6 2 1 1 -1 0 1 -1 -2 -1 -2 -2 -2
-2 -2 -7 -4 -2 -5 -4 4 8 8 -9 -3 -3 0 -8 -5 -5 -7 -10 -8 -12 -8 3 -15 -14 34 9 3 1 -3 8 3 1 1 1 0 0 0 -0 -1 -1 -2 -3 -2
-3 -7 -3 3 -1 -14 14 7 10 -6 -3 1 0 -6 -2 -7 -7 -9 -7 -12 -9 1 -13 -9 19 38 1 -8 0 -3 -1 0 2 2 1 -0 -1 -0 0 -0 -1 -2 -1 -2
-5 -2 -13 -5 -13 12 2 7 -1 -5 -10 -4 -4 1 2 7 -4 -10 -2 -14 -5 -19 -7 26 9 5 4 -8 -1 -2 -6 0 0 0 1 2 1 1 1 1 -1 -2 -1 -1
-4 -4 -7 -9 15 9 9 6 4 1 -5 -9 -11 -8 -3 2 -2 0 -5 -8 -11 -1 21 21 5 6 2 -5 5 -0 2 -1 1 1 1 2 2 2 2 2 1 1 0 0
-9 -18 -7 25 11 9 5 -2 4 2 0 -1 -5 -6 -15 -1 -6 -4 -3 -9 2 16 17 12 9 3 -3 -6 -6 5 -3 -1 2 3 2 2 1 -0 2 2 1 0 -0 0
-20 -0 22 3 5 3 -2 1 5 1 -2 4 -9 -6 4 -13 -20 -1 -3 1 11 -1 -1 -3 -9 -8 -2 1 -2 -2 5 -2 -2 1 1 1 2 1 0 1 1 1 1 1
Height
5706 5702 5696 5692 5689 5685 5680 5678 5674 5670 5667 5663 5659 5654 5650 5646 5643 5640 5639 5637 5636 5635 5633 5631 5629 5627 5625 5622 5620 5619 5616 5614 5611 5609 5605 5603 5600 5596 5591 5586 5582 5577 5574 5570
5708 5704 5700 5698 5696 5691 5687 5683 5680 5675 5671 5668 5665 5660 5655 5651 5649 5646 5643 5642 5640 5639 5636 5633 5631 5629 5628 5626 5625 5622 5620 5619 5617 5612 5610 5607 5604 5600 5596 5591 5586 5583 5579 5576
5713 5708 5704 5700 5697 5694 5692 5689 5686 5681 5677 5672 5669 5667 5661 5656 5653 5652 5649 5646 5645 5643 5640 5637 5634 5633 5632 5630 5629 5627 5625 5623 5619 5616 5613 5612 5608 5604 5600 5597 5593 5590 5586 5582
5716 5713 5708 5702 5699 5697 5694 5692 5688 5684 5683 5678 5674 5671 5668 5663 5658 5656 5654 5651 5649 5647 5644 5641 5638 5636 5635 5634 5632 5630 5629 5627 5624 5621 5619 5616 5613 5608 5604 5602 5599 5598 5593 5589
5721 5715 5710 5707 5703 5698 5697 5693 5692 5688 5684 5684 5679 5675 5672 5670 5665 5660 5658 5656 5653 5651 5648 5645 5642 5640 5638 5636 5635 5633 5632 5630 5628 5627 5624 5622 5619 5615 5610 5607 5606 5604 5602 5598
5722 5719 5715 5710 5707 5703 5700 5696 5694 5691 5689 5684 5684 5680 5676 5673 5670 5667 5662 5660 5657 5654 5652 5648 5646 5643 5641 5639 5636 5634 5633 5632 5631 5629 5629 5625 5624 5621 5618 5616 5611 5610 5610 5607
5721 5719 5716 5713 5709 5705 5701 5698 5695 5693 5691 5688 5684 5682 5680 5677 5674 5671 5668 5663 5661 5659 5655 5652 5649 5646 5644 5642 5640 5637 5636 5634 5633 5631 5628 5629 5627 5626 5623 5621 5618 5615 5615 5615
5721 5718 5715 5713 5708 5705 5702 5697 5696 5693 5689 5689 5687 5683 5681 5680 5676 5674 5671 5667 5664 5661 5658 5656 5653 5651 5647 5645 5642 5640 5638 5637 5635 5634 5632 5631 5630 5629 5627 5624 5623 5621 5621 5622
5719 5717 5714 5712 5708 5706 5702 5698 5695 5692 5691 5687 5686 5685 5682 5680 5678 5676 5673 5671 5667 5663 5660 5659 5656 5653 5651 5648 5645 5642 5640 5638 5637 5636 5635 5633 5633 5632 5630 5628 5627 5625 5625 5624
5716 5713 5711 5710 5707 5704 5702 5697 5693 5690 5687 5687 5684 5683 5681 5680 5678 5676 5674 5672 5669 5666 5662 5660 5659 5657 5654 5651 5648 5645 5643 5640 5638 5637 5636 5636 5636 5634 5633 5633 5635 5629 5628 5628
5713 5711 5707 5704 5703 5700 5700 5696 5693 5689 5685 5683 5683 5680 5679 5677 5677 5675 5674 5672 5670 5668 5664 5662 5659 5658 5657 5654 5651 5648 5646 5643 5641 5639 5637 5637 5634 5636 5635 5634 5633 5632 5631 5632
5707 5704 5702 5699 5699 5696 5694 5694 5690 5686 5682 5679 5676 5677 5675 5675 5674 5673 5671 5671 5669 5667 5666 5663 5660 5658 5657 5656 5654 5651 5649 5648 5646 5644 5644 5642 5640 5640 5639 5639 5639 5640 5639 5638
5701 5698 5696 5694 5692 5690 5690 5688 5685 5682 5677 5675 5671 5671 5671 5670 5669 5668 5668 5667 5666 5665 5664 5663 5661 5659 5658 5656 5655 5653 5651 5649 5649 5647 5645 5646 5645 5645 5644 5644 5644 5643 5642 5642
5695 5691 5689 5687 5686 5685 5683 5681 5679 5677 5675 5671 5668 5664 5663 5664 5664 5663 5662 5662 5661 5661 5661 5660 5660 5658 5657 5656 5654 5653 5652 5651 5650 5649 5648 5647 5647 5646 5646 5646 5645 5645 5644 5644
5688 5684 5682 5680 5679 5676 5676 5673 5673 5672 5670 5667 5663 5659 5657 5655 5656 5656 5655 5654 5655 5655 5656 5656 5656 5656 5655 5654 5653 5652 5651 5650 5650 5649 5649 5649 5648 5647 5647 5646 5646 5646 5646 5647
5680 5676 5673 5671 5669 5668 5667 5666 5666 5664 5662 5658 5659 5656 5651 5648 5646 5647 5647 5646 5646 5647 5648 5649 5651 5651 5651 5652 5651 5651 5650 5649 5648 5648 5648 5648 5648 5646 5646 5646 5646 5646 5646 5646
5671 5668 5664 5662 5659 5658 5657 5656 5657 5655 5653 5651 5653 5650 5647 5642 5638 5636 5637 5637 5638 5637 5639 5642 5643 5643 5644 5648 5648 5645 5646 5646 5646 5646 5646 5646 5646 5645 5644 5644 5644 5643 5643 5643
5662 5659 5656 5652 5650 5649 5646 5645 5647 5647 5645 5643 5643 5643 5640 5635 5631 5629 5626 5628 5628 5630 5629 5633 5633 5634 5637 5644 5638 5641 5641 5641 5641 5642 5642 5643 5643 5642 5642 5642 5641 5641 5640 5640
5651 5648 5646 5643 5640 5639 5637 5637 5638 5638 5636 5633 5635 5633 5630 5626 5622 5620 5618 5616 5617 5619 5621 5623 5623 5625 5631 5636 5632 5632 5633 5634 5635 5636 5636 5637 5637 5638 5638 5638 5637 5637 5637 5636
5641 5639 5636 5633 5630 5628 5628 5627 5627 5626 5624 5621 5624 5620 5618 5613 5610 5609 5606 5605 5606 5606 5611 5611 5614 5617 5623 5622 5621 5622 5624 5625 5627 5628 5629 5630 5630 5631 5632 5633 5632 5632 5631 5630
5628 5627 5626 5623 5620 5617 5616 5615 5616 5614 5612 5610 5609 5604 5602 5602 5600 5597 5594 5593 5592 5593 5598 5601 5602 5609 5616 5613 5611 5612 5616 5618 5619 5619 5621 5621 5623 5624 5624 5625 5625 5625 5624 5623
5615 5615 5612 5609 5608 5603 5604 5604 5604 5602 5598 5597 5594 5592 5590 5590 5587 5583 5582 5580 5579 5580 5583 5588 5592 5601 5605 5604 5602 5603 5607 5608 5609 5610 5611 5613 5614 5615 5616 5617 5617 5617 5617 5616
5598 5599 5598 5596 5594 5588 5590 5593 5591 5586 5584 5581 5578 5577 5577 5575 5572 5569 5568 5566 5565 5566 5566 5574 5582 5588 5588 5590 5590 5591 5595 5597 5599 5602 5602 5603 5604 5605 5607 5608 5609 5608 5608 5607
5584 5584 5584 5582 5575 5577 5579 5577 5574 5571 5567 5564 5562 5560 5560 5559 5555 5553 5552 5549 5549 5549 5557 5564 5563 5563 5567 5573 5577 5578 5581 5584 5587 5591 5593 5595 5595 5596 5597 5598 5599 5599 5598 5597
5568 5568 5568 5565 5566 5566 5563 5560 5557 5554 5550 5549 5546 5544 5542 5542 5538 5536 5535 5533 5533 5537 5546 5546 5544 5544 5548 5554 5561 5564 5569 5572 5575 5578 5581 5584 5585 5587 5588 5589 5589 5589 5589 5587
5551 5553 5550 5551 5552 5549 5545 5543 5539 5536 5532 5529 5527 5524 5521 5521 5520 5518 5519 5519 5522 5528 5526 5523 5523 5526 5530 5537 5543 5550 5554 5558 5562 5566 5570 5572 5575 5576 5577 5579 5580 5580 5579 5578
5535 5537 5539 5536 5533 5530 5526 5524 5521 5517 5514 5511 5503 5504 5503 5498 5499 5504 5506 5508 5510 5507 5506 5506 5508 5513 5519 5522 5528 5534 5539 5543 5548 5552 5556 5559 5562 5565 5566 5567 5568 5569 5568 5568